Simultaneous Nadir Overpasses (SNOs) Predictions

Prediction of SNOs between LANDSAT-8 and METOP-B Satellite Orbit:

Table of predicted SNOs for the next 14.0 days since TLE Epoch: 5/22/2020
Index Date (LANDSAT-8) Time (LANDSAT-8) Lat,Lon (LANDSAT-8) SZA (LANDSAT-8 ) Date (METOP-B) Time (METOP-B) Lat,Lon (METOP-B) SZA (METOP-B ) Distance(km) Time Diff (sec)
1 05/25/2020 14:00:11 -81.16,-169.46 117.64 05/25/2020 13:59:51 -81.16,-169.48 117.65 0.52 20
2 05/25/2020 14:49:37 81.16, -1.78 62.36 05/25/2020 14:50:31 81.16, -1.96 62.37 3.04 54
3 05/28/2020 09:34:27 -81.16,-103.12 118.13 05/28/2020 09:34:13 -81.15,-103.17 118.14 0.84 14
4 05/28/2020 10:23:52 81.18, 64.91 61.93 05/28/2020 10:24:51 81.18, 65.07 61.98 2.68 59
5 05/31/2020 05:08:43 -81.15, -36.80 118.57 05/31/2020 05:08:35 -81.15, -36.88 118.58 1.31 8
6 05/31/2020 05:58:08 81.17, 131.21 61.49 05/31/2020 05:59:13 81.18, 131.31 61.53 1.97 65
7 06/03/2020 00:42:57 -81.16, 29.85 118.91 06/03/2020 00:42:55 -81.16, 29.77 118.92 1.42 2
8 06/03/2020 01:32:22 81.18,-162.15 61.14 06/03/2020 01:33:33 81.18,-162.07 61.18 1.32 71
9 06/05/2020 19:27:46 81.15, -71.58 60.73 06/05/2020 19:26:36 81.15, -71.49 60.71 1.56 70




NCC Satellite Simultaneous Nadir Overpasses (SNOs) Prediction Service
